Find Dongpo 11

NORAD ID: 68206 Int'l Des: NNA 2026-052 Owner: HUANTZ Country: CN operational
LEORETROGRADE

实时位置

正在加载3D地球...

关于 Dongpo 11

正在加载描述...

即将过境

Passes for default location (London). Set your location on the main map for personalized predictions.

高度历史

Loading altitude history...

两行轨道根数

1 68206U 26052J 26121.92578116 .00087139 30677-5 12290-2 0 9990
2 68206 97.3367 194.0615 0524993 220.6056 135.4877 14.72609192 6875
Epoch: May 1, 2026 • Age: 11 hours

当前状态

高度 364.1 km
速度 7.86 km/s
星下点 -70.90°S, 4.76°W
发射日期 Mar 16, 2026
运行时间 0.1 years
类型 other

技术详情

分类 Payload
质量 100.00 kg
干质量 100.00 kg
总质量 100.00 kg
长度 1.50 m
直径 1.00 m
跨度 1.50 m
形状 Box
制造商 WEINA
平台类型 Dongpo
阶段状态 In Orbit
所有者/国家 HUANTZ/CN

Most Searched